#timestamp,LO_Frequency,Hit,StdDev 
1502452815.2,286047003.5,N,1.3
1502452835.0,286047003.9,Y,0.0
1502452835.9,286047003.9,P,0.4
1502452855.8,286047000.8,N,1.3
1502452875.6,286046999.5,N,1.7
1502452895.5,286046998.2,N,2.1
1502452915.3,286046999.3,N,2.1
1502452935.1,286047000.5,N,1.9
1502452955.9,286046998.8,N,1.9
1502452975.7,286046998.8,N,1.9
1502452995.6,286047002.6,N,1.9
1502453015.4,286047001.0,N,1.8
1502453035.2,286046998.4,N,1.8
1502453055.1,286046998.8,N,1.8
1502453056.0,286046998.8,N,1.8
1502453075.8,286046998.4,N,1.8
1502453095.6,286047000.6,N,1.7
1502453115.5,286047001.2,N,1.7
1502453135.3,286046999.9,N,1.7
1502453155.2,286046998.6,N,1.6
1502453175.0,286047000.2,N,1.6
1502453175.9,286047000.2,N,1.6
1502453195.7,286047001.2,N,1.5
1502453215.6,286046998.1,N,1.6
1502453235.4,286047002.6,N,1.6
1502453255.3,286047002.4,N,1.6
1502453275.1,286047002.8,N,1.7
1502453295.8,286046998.6,N,1.7
1502453315.7,286047001.2,N,1.7
1502453335.5,286046999.2,N,1.7
1502453355.4,286046999.0,N,1.6
1502453375.2,286046998.6,N,1.6
1502453395.0,286046998.6,N,1.4
1502453395.9,286046998.6,N,1.4
1502453415.8,286047001.2,N,1.5
1502453435.6,286047001.1,N,1.4
1502453455.5,286047000.5,N,1.4
1502453475.3,286047002.7,N,1.5
1502453495.1,286047002.1,N,1.5
1502453515.9,286047000.0,N,1.5
1502453535.7,286046998.3,N,1.5
1502453555.5,286047000.0,N,1.5
1502453575.4,286047000.2,N,1.4
1502453595.2,286046999.7,N,1.4
1502453615.1,286047000.0,N,1.4
1502453616.0,286047000.0,N,1.4
1502453635.8,286047001.1,N,1.4
1502453655.6,286047000.0,N,1.4
1502453675.5,286047000.3,N,1.4
1502453695.3,286047000.4,N,1.3
1502453715.2,286047000.8,N,1.3
1502453735.0,286047000.1,N,1.3
1502453735.9,286047000.1,N,1.3
1502453755.7,286047002.5,N,1.3
1502453775.6,286047002.3,N,1.3
1502453795.4,286047000.2,N,1.2
1502453815.3,286047002.2,N,1.2
1502453835.1,286047002.1,N,1.2
1502453855.8,286046999.8,N,1.2
1502453875.7,286047002.5,N,1.2
1502453895.5,286047002.3,N,1.2
1502453915.4,286047002.6,N,1.2
1502453935.2,286047002.2,N,1.2
1502453955.0,286046999.8,N,1.1
1502453955.9,286046999.8,N,1.2
1502453975.8,286047002.7,N,1.2
1502453995.6,286047002.8,N,1.2
1502454015.5,286046999.9,N,1.2
1502454035.3,286047000.2,N,1.2
1502454055.1,286047000.5,N,1.2
1502454075.9,286047000.5,N,1.1
1502454095.7,286047000.4,N,1.1
1502454115.6,286047000.5,N,1.1
1502454135.4,286047002.3,N,1.1
1502454155.2,286047001.9,N,1.1
1502454175.1,286047002.6,N,1.1
1502454176.0,286047002.6,N,1.1
1502454195.8,286047002.3,N,1.1
1502454215.7,286047002.3,N,1.1
1502454235.5,286047000.5,N,1.1
1502454255.3,286047000.0,N,1.1
1502454275.2,286047000.2,N,1.1
1502454295.0,286047000.9,N,1.1
1502454295.9,286047000.9,N,1.1
1502454315.8,286047000.3,N,1.1
1502454335.6,286047002.8,N,1.1
1502454355.4,286047000.0,N,1.1
1502454375.3,286047002.8,N,1.1
1502454395.1,286046999.9,N,1.1
1502454415.9,286047002.8,N,1.2
1502454435.7,286046999.8,N,1.2
1502454455.5,286047002.7,N,1.2
1502454475.4,286047000.4,N,1.2
1502454495.2,286047002.1,N,1.2
1502454515.0,286047002.5,N,1.1
1502454515.9,286047002.5,N,1.1
1502454535.8,286047002.5,N,1.1
1502454555.6,286047001.9,N,1.1
1502454575.5,286047000.3,N,1.1
1502454595.3,286046999.9,N,1.1
1502454615.1,286047001.0,N,1.1
1502454635.9,286046999.8,N,1.1
1502454655.7,286046999.9,N,1.1
1502454675.6,286046999.9,N,1.2
1502454695.4,286047000.2,N,1.2
1502454715.2,286046999.7,N,1.2
1502454735.1,286047002.2,N,1.2
1502454736.0,286047002.2,N,1.2
1502454755.8,286046999.7,N,1.2
1502454775.7,286047002.6,N,1.2
1502454795.5,286047002.3,N,1.2
1502454815.3,286047002.1,N,1.2
1502454835.2,286047002.6,N,1.2
1502454855.0,286682707.7,Y,0.0
1502454855.9,286047002.2,P,0.5
1502454875.8,286047000.1,N,0.9
1502454895.6,286047000.5,N,0.8
1502454915.4,286047001.0,N,0.7
1502454935.3,286047000.3,N,0.7
1502454955.1,286047000.1,N,0.7
1502454975.9,286046999.7,N,0.8
1502454995.7,286047000.2,N,0.7
1502455015.5,286047000.4,N,0.7
1502455035.4,286047000.9,N,0.7
1502455055.2,286047001.1,N,0.7
1502455075.0,286047001.2,N,0.6
1502455076.0,286047001.2,N,0.6
1502455095.8,286047000.8,N,0.6
1502455115.6,286046998.2,N,0.9
1502455135.5,286047000.6,N,0.8
1502455155.3,286047000.2,N,0.8
1502455175.1,286046999.7,N,0.8
1502455195.9,286046999.9,N,0.8
1502455215.7,286047000.4,N,0.8
1502455235.6,286047002.8,Y,0.0
1502455255.4,286047000.3,P,0.1
1502455275.2,286047002.3,P,0.9
1502455295.1,286047000.2,N,0.9
1502455296.0,286047000.2,N,0.8
1502455315.8,286047002.2,N,0.9
1502455335.7,286047002.5,N,1.0
1502455355.5,286047001.9,N,1.0
1502455375.3,286047002.4,N,1.0
1502455395.2,286046999.7,N,1.1
1502455415.0,286047000.2,N,1.1
1502455415.9,286047000.2,N,1.0
1502455435.8,286047000.5,N,1.0
1502455455.6,286047000.1,N,1.0
1502455475.4,286047000.2,N,1.0
1502455495.3,286047000.0,N,1.0
1502455515.1,286046999.7,N,1.0
1502455535.9,286047000.6,N,1.0
1502455555.7,286047001.1,N,0.9
1502455575.5,286047000.4,N,0.9
1502455595.4,286047000.0,N,0.9
1502455615.2,286047000.9,N,0.9
1502455635.1,286047001.1,N,0.9
1502455636.0,286047001.1,N,0.9
1502455655.8,286047001.1,N,0.8
1502455675.6,286046998.9,N,0.9
1502455695.5,286046998.4,N,1.0
1502455715.3,286046998.2,N,1.1
1502455735.2,286046999.0,N,1.1
1502455755.9,286046999.3,N,1.1
1502455775.7,286046997.0,N,1.3
1502455795.6,286046999.0,N,1.3
1502455815.4,286046999.5,N,1.2
1502455835.3,286046996.5,N,1.4
1502455855.1,286046997.0,N,1.5
1502455856.0,286046997.0,N,1.5
1502455875.8,286046997.3,N,1.5
1502455895.7,286046996.9,N,1.5
1502455915.5,286046997.0,N,1.5
1502455935.4,286046995.3,Y,0.0
1502455955.2,286046997.8,P,0.7
1502455975.0,286046997.3,P,0.8
1502455975.9,286046997.3,P,0.8
1502455995.8,286046997.0,Y,0.0
1502456015.6,286046999.0,P,0.5
1502456035.5,286046999.1,N,0.5
1502456055.3,286046998.9,N,0.5
1502456075.1,286046998.7,N,0.4
1502456095.9,286046998.8,N,0.4
1502456115.7,286046999.4,N,0.4
1502456135.6,286046998.8,N,0.4
1502456155.4,286046998.3,Y,0.0
1502456175.2,286047000.7,P,0.9
1502456195.1,286046998.1,N,1.1
1502456196.0,286046998.1,N,1.1
1502456215.8,286047000.7,N,1.2
1502456235.7,286047000.4,N,1.2
1502456255.5,286046998.9,N,1.1
1502456275.3,286046999.3,N,1.0
1502456295.2,286046998.3,N,1.0
1502456315.0,286046998.6,N,1.0
1502456315.9,286046998.6,N,1.0
1502456335.8,286046998.6,N,0.9
1502456355.6,286046998.2,N,0.9
1502456375.4,286046998.1,N,0.9
1502456395.3,286046998.9,N,0.9
